[[{"header":{"parameterUnit":"m.s-1","parameterCategory":1,"la1":30.2991,"la2":30.254,"lo1":-89.0895,"lo2":-89.0444,"dy":0.0017,"dx":0.0017,"nx":28,"ny":28,"refTime":"2025-03-09T21:00:00:Z","depth":0,"parameterNumber":2,"parameterNumberName":"U-component_of_WINDS"},"data":[0,0,0,0,0,0,0,0,0,0,0,0,0,0,0,0,0,0,0,0,0,0,0,0,0,0,0,0,0,0,0,0,0,0,0,0,0,0,0,0,0,0,0,0,0,0,0,0,0,0,0,0,0,0,0,0,0,0,1.2431,1.2432,0,1.2515,1.2516,1.2517,1.2536,1.2535,1.2535,1.2534,1.2624,1.2627,1.263,0,0,0,0,0,0,0,0,0,0,0,0,0,1.229,1.2292,1.2431,1.2432,1.2433,1.2515,1.2516,1.2517,1.2536,1.2535,1.2534,1.2534,1.2623,1.2626,1.263,0,0,0,0,0,0,0,0,0,0,0,0,0,1.236,1.2293,1.2431,1.2452,1.2455,1.2515,1.2516,1.2518,1.2536,1.2535,1.2534,1.2533,1.2622,1.2626,1.263,1.2676,0,0,1.2644,1.2646,0,0,0,0,0,0,0,0,1.2356,1.2365,1.2448,1.2451,1.2454,1.2514,1.2499,1.2571,1.2536,1.2505,1.2534,1.2533,1.2588,1.2595,1.2613,1.2681,1.2684,1.2644,1.2647,1.2649,1.265,0,0,0,0,0,0,0,1.2351,1.2362,1.2465,1.2449,1.2453,1.2459,1.2468,1.2513,1.2551,1.2508,1.2509,1.2519,1.259,1.2609,1.2616,1.2686,1.2644,1.2648,1.2651,1.2653,1.2795,1.2796,0,0,0,0,0,0,1.2342,1.2358,1.2462,1.2467,1.2402,1.2462,1.2472,1.2496,1.2551,1.2558,1.252,1.252,1.2602,1.261,1.2619,1.2676,1.2649,1.2653,1.2656,1.2794,1.2795,1.2796,0,0,0,0,0,0,1.2339,1.2351,1.2458,1.2413,1.2427,1.2465,1.2492,1.2498,1.2517,1.2559,1.2567,1.2532,1.2601,1.2613,1.2662,1.268,1.2655,1.2659,1.2793,1.2794,1.2796,1.2791,0,0,0,0,0,0,1.2335,1.235,1.2367,1.2413,1.2429,1.2499,1.2493,1.25,1.2524,1.2525,1.2573,1.258,1.2602,1.2655,1.2666,1.2685,1.2663,1.2791,1.2793,1.2795,1.279,1.2793,1.2795,0,0,0,0,0,1.233,1.2363,1.2368,1.238,1.2451,1.25,1.2509,1.2532,1.2526,1.2544,1.2571,1.2579,1.2676,1.266,1.2673,1.2693,1.279,1.2793,1.2795,1.2789,1.2792,1.2795,0,0,0,0,0,0,1.232,1.237,1.2375,1.2424,1.2458,1.2503,1.2526,1.2535,1.2571,1.2571,1.2599,1.2609,1.2657,1.268,1.2661,1.2741,1.2733,1.2738,1.2724,1.2727,1.2729,1.2723,1.2666,0,0,0,0,0,1.2323,1.2357,1.2399,1.2439,1.2455,1.2488,1.251,1.2524,1.256,1.2575,1.2606,1.2641,1.268,1.2705,1.2743,1.2793,1.2804,1.2814,1.2816,1.2818,1.2822,1.2851,1.2856,1.2805,1.2805,1.2805,0,0,1.2331,1.2362,1.2382,1.2438,1.2465,1.2501,1.2499,1.2537,1.2565,1.2581,1.2629,1.2653,1.2694,1.2744,1.2768,1.2765,1.2839,1.2821,1.2822,1.2826,1.2854,1.2859,1.2863,1.2806,1.2806,1.2806,0,0,1.2363,1.239,1.2425,1.2453,1.2494,1.2515,1.2523,1.2567,1.2584,1.2632,1.2645,1.2678,1.2744,1.2773,1.2796,1.2839,1.2847,1.285,1.2863,1.2891,1.2895,1.2898,1.2914,1.2919,1.2854,1.2854,1.2854,0,1.2367,1.2421,1.2443,1.248,1.2504,1.2519,1.2556,1.2582,1.2634,1.2651,1.2647,1.2729,1.2758,1.2815,1.2825,1.2844,1.2855,1.2845,1.2892,1.2896,1.29,1.2915,1.292,1.2855,1.2854,1.2854,1.2854,0,1.2424,1.2461,1.2485,1.2533,1.256,1.2597,1.2626,1.2651,1.2663,1.2685,1.2734,1.2769,1.2815,1.2829,1.2842,1.2888,1.2885,1.2886,1.2879,1.2904,1.2919,1.2925,1.2855,1.2855,1.2855,1.2855,0,0,1.2453,1.2512,1.2521,1.2543,1.2589,1.2618,1.2656,1.2699,1.272,1.2755,1.2788,1.2843,1.2844,1.287,1.2887,1.2911,1.2942,1.2909,1.2911,1.2914,1.2995,1.2994,1.3,1.2948,1.2949,1.295,1.2992,0,1.2491,1.2557,1.2578,1.2634,1.2669,1.2684,1.2717,1.2749,1.2771,1.2804,1.2829,1.2867,1.2865,1.2882,1.2906,1.2933,1.2959,1.2931,1.298,1.2981,1.2969,1.3008,1.3007,1.3045,1.2998,1.2999,1.2999,0,1.2544,1.2578,1.2637,1.2679,1.2694,1.2723,1.2764,1.2796,1.2833,1.2847,1.2876,1.289,1.2931,1.2921,1.2978,1.2958,1.298,1.2996,1.2998,1.3004,1.2992,1.3015,1.3057,1.3063,1.3009,1.3008,1.3007,0,1.2558,1.262,1.2663,1.2682,1.2731,1.2752,1.2773,1.281,1.2834,1.287,1.2886,1.2927,1.295,1.2981,1.3006,1.2997,1.3061,1.3053,1.3075,1.3074,1.3088,1.3087,1.3134,1.3102,1.3101,1.3101,1.3101,0,1.2599,1.2634,1.2671,1.2697,1.2738,1.2762,1.2802,1.2825,1.2857,1.2889,1.2905,1.2935,1.2966,1.3,1.302,1.3064,1.3075,1.3088,1.3093,1.3086,1.3085,1.3101,1.3099,1.3103,1.3103,1.3102,1.3102,0,1.2622,1.2648,1.2696,1.2739,1.275,1.2778,1.2815,1.2842,1.2864,1.2905,1.2915,1.295,1.2991,1.3019,1.3073,1.3086,1.3134,1.3139,1.3121,1.3123,1.3143,1.3141,1.3203,1.3212,1.3173,1.3173,1.3174,0,1.2646,1.2674,1.2719,1.2741,1.2762,1.2798,1.2822,1.2847,1.2873,1.2917,1.2939,1.298,1.3015,1.308,1.3111,1.3152,1.3157,1.3176,1.3164,1.3156,1.3158,1.3156,1.3159,1.3178,1.3179,1.3179,1.3179,0,1.2686,1.2697,1.2731,1.277,1.2798,1.283,1.2863,1.288,1.2911,1.2939,1.298,1.3007,1.306,1.3102,1.3145,1.3169,1.3179,1.3183,1.319,1.3184,1.3172,1.3179,1.3126,1.3181,1.3181,1.3181,1.3181,1.3181,1.271,1.2735,1.2771,1.2809,1.2835,1.2865,1.2892,1.2917,1.2952,1.2996,1.3009,1.3053,1.3089,1.3148,1.3173,1.3207,1.3206,1.3216,1.3219,1.3221,1.3221,1.3166,1.3216,1.3215,1.3215,1.3215,1.3215,0,1.2751,1.2774,1.2809,1.2852,1.2882,1.2888,1.2924,1.2949,1.2986,1.3019,1.3053,1.31,1.3141,1.3174,1.3216,1.3237,1.3243,1.3247,1.3246,1.3251,1.322,1.321,1.3242,1.3242,1.3242,1.3242,1.3242,1.3242,1.2775,1.2818,1.2833,1.289,1.2913,1.2955,1.2975,1.3003,1.3029,1.3081,1.3114,1.3135,1.3168,1.3213,1.325,1.3259,1.3273,1.3277,1.3287,1.3257,1.3254,1.3251,1.3241,1.328,1.328,1.3315,1.3316,1.3316]},{"header":{"parameterUnit":"m.s-1","parameterCategory":1,"la1":30.2991,"la2":30.254,"lo1":-89.0895,"lo2":-89.0444,"dy":0.0017,"dx":0.0017,"nx":28,"ny":28,"refTime":"2025-03-09T21:00:00:Z","depth":0,"parameterNumber":3,"parameterNumberName":"V-component_of_WINDS"},"data":[0,0,0,0,0,0,0,0,0,0,0,0,0,0,0,0,0,0,0,0,0,0,0,0,0,0,0,0,0,0,0,0,0,0,0,0,0,0,0,0,0,0,0,0,0,0,0,0,0,0,0,0,0,0,0,0,0,0,2.1107,2.1106,0,2.1082,2.1082,2.1082,2.1078,2.1078,2.1078,2.1078,2.105,2.1049,2.1048,0,0,0,0,0,0,0,0,0,0,0,0,0,2.1146,2.1146,2.1107,2.1106,2.1106,2.1082,2.1082,2.1082,2.1078,2.1078,2.1078,2.1078,2.1051,2.1049,2.1048,0,0,0,0,0,0,0,0,0,0,0,0,0,2.1126,2.1145,2.1107,2.1101,2.1101,2.1082,2.1082,2.1082,2.1078,2.1078,2.1078,2.1079,2.1051,2.105,2.1048,2.1033,0,0,2.1044,2.1043,0,0,0,0,0,0,0,0,2.1127,2.1125,2.1102,2.1102,2.1101,2.1083,2.1086,2.1065,2.1077,2.1086,2.1078,2.1079,2.1061,2.1059,2.1053,2.1031,2.103,2.1044,2.1043,2.1042,2.1042,0,0,0,0,0,0,0,2.1129,2.1126,2.1097,2.1102,2.1101,2.1099,2.1096,2.1082,2.1072,2.1085,2.1085,2.1082,2.106,2.1055,2.1053,2.103,2.1044,2.1042,2.1042,2.1041,2.0992,2.0992,0,0,0,0,0,0,2.1131,2.1127,2.1098,2.1096,2.1115,2.1098,2.1095,2.1089,2.1072,2.107,2.1082,2.1082,2.1057,2.1054,2.1052,2.1031,2.1042,2.1041,2.104,2.0993,2.0992,2.0992,0,0,0,0,0,0,2.1132,2.1129,2.1099,2.1111,2.1107,2.1097,2.109,2.1088,2.1082,2.107,2.1068,2.1078,2.1057,2.1054,2.1037,2.103,2.104,2.1039,2.0993,2.0993,2.0992,2.0991,0,0,0,0,0,0,2.1134,2.1129,2.1124,2.1111,2.1107,2.1086,2.1089,2.1087,2.108,2.108,2.1065,2.1063,2.1057,2.1039,2.1036,2.1028,2.1038,2.0994,2.0993,2.0992,2.0992,2.0991,2.099,0,0,0,0,0,2.1135,2.1125,2.1124,2.1121,2.11,2.1086,2.1083,2.1077,2.108,2.1074,2.1065,2.1064,2.1032,2.1038,2.1034,2.1026,2.0994,2.0993,2.0992,2.0992,2.0991,2.099,0,0,0,0,0,0,2.1136,2.1123,2.1122,2.1108,2.1098,2.1085,2.1078,2.1076,2.1064,2.1065,2.1057,2.1053,2.1037,2.103,2.1037,2.1009,2.1013,2.1011,2.1015,2.1013,2.1012,2.1014,2.1037,0,0,0,0,0,2.1135,2.1125,2.1114,2.1102,2.1097,2.1088,2.1082,2.1078,2.1067,2.1063,2.1053,2.1042,2.1029,2.1021,2.1008,2.0991,2.0987,2.0983,2.0982,2.0981,2.098,2.0968,2.0966,2.0988,2.0988,2.0989,0,0,2.1132,2.1124,2.1118,2.1102,2.1094,2.1083,2.1085,2.1073,2.1064,2.106,2.1045,2.1037,2.1024,2.1006,2.0998,2.1,2.0972,2.098,2.098,2.0978,2.0967,2.0965,2.0963,2.0988,2.0988,2.0988,0,0,2.1121,2.1114,2.1103,2.1095,2.1083,2.1077,2.1074,2.1062,2.1057,2.1041,2.1037,2.1026,2.1005,2.0995,2.0987,2.0971,2.0968,2.0967,2.0961,2.095,2.0948,2.0946,2.0939,2.0937,2.0965,2.0965,2.0965,0,2.1119,2.1103,2.1098,2.1086,2.1078,2.1075,2.1063,2.1055,2.1039,2.1033,2.1036,2.1008,2.0999,2.0978,2.0974,2.0968,2.0964,2.0968,2.0949,2.0947,2.0946,2.0939,2.0936,2.0965,2.0965,2.0965,2.0965,0,2.11,2.1089,2.1081,2.1066,2.1058,2.1046,2.1038,2.103,2.1026,2.1019,2.1002,2.0991,2.0976,2.0971,2.0967,2.0949,2.095,2.0951,2.0954,2.0943,2.0937,2.0934,2.0965,2.0965,2.0965,2.0965,0,0,2.1089,2.1072,2.1069,2.1061,2.1048,2.1038,2.1025,2.1011,2.1003,2.0992,2.098,2.0962,2.0962,2.0953,2.0948,2.0939,2.0925,2.094,2.0939,2.0936,2.0902,2.0901,2.0899,2.0923,2.0923,2.0922,2.0903,0,2.1075,2.1054,2.1048,2.1029,2.1018,2.1014,2.1002,2.0992,2.0985,2.0973,2.0965,2.0951,2.0953,2.0948,2.0938,2.0928,2.0917,2.093,2.091,2.0909,2.0913,2.0895,2.0894,2.0877,2.0901,2.09,2.09,0,2.1057,2.1046,2.1026,2.1012,2.1007,2.0997,2.0983,2.0973,2.096,2.0955,2.0945,2.094,2.0925,2.093,2.0908,2.0916,2.0908,2.0902,2.0901,2.0898,2.0903,2.0891,2.0871,2.0868,2.0896,2.0896,2.0896,0,2.105,2.103,2.1015,2.1009,2.0993,2.0986,2.0979,2.0966,2.0958,2.0945,2.0939,2.0924,2.0916,2.0903,2.0895,2.0899,2.0872,2.0877,2.0867,2.0867,2.0861,2.0861,2.0839,2.0857,2.0857,2.0857,2.0857,0,2.1035,2.1022,2.1011,2.1002,2.0987,2.0981,2.0966,2.0958,2.0947,2.0935,2.093,2.0919,2.0908,2.0895,2.0888,2.087,2.0866,2.0861,2.0859,2.0861,2.0861,2.0854,2.0855,2.0856,2.0857,2.0857,2.0857,0,2.1024,2.1017,2.1,2.0986,2.0982,2.0972,2.0959,2.0949,2.0942,2.0927,2.0923,2.0911,2.0894,2.0885,2.0864,2.0859,2.0838,2.0837,2.0843,2.0842,2.0832,2.0832,2.0803,2.0798,2.0821,2.0821,2.0821,0,2.1015,2.1005,2.099,2.0982,2.0975,2.0963,2.0954,2.0946,2.0937,2.0921,2.0912,2.0896,2.0882,2.0856,2.0845,2.0828,2.0826,2.0817,2.0824,2.0825,2.0824,2.0825,2.0823,2.0816,2.0816,2.0815,2.0815,0,2.0998,2.0995,2.0983,2.0969,2.0959,2.0948,2.0936,2.093,2.0919,2.0909,2.0893,2.0882,2.0861,2.0844,2.0827,2.0818,2.0814,2.0813,2.081,2.0811,2.0814,2.0811,2.0839,2.0814,2.0814,2.0814,2.0814,2.0814,2.0987,2.0978,2.0966,2.0952,2.0943,2.0932,2.0922,2.0913,2.09,2.0882,2.0878,2.0861,2.0846,2.0823,2.0813,2.0798,2.0799,2.0795,2.0793,2.0792,2.0791,2.0818,2.0795,2.0795,2.0795,2.0795,2.0795,0,2.097,2.0962,2.0949,2.0933,2.0922,2.0921,2.0908,2.0898,2.0883,2.0871,2.0857,2.0838,2.0821,2.0808,2.079,2.0781,2.0778,2.0776,2.0776,2.0774,2.0791,2.0796,2.0778,2.0778,2.0778,2.0778,2.0778,2.0778,2.0959,2.0943,2.0938,2.0916,2.0908,2.0891,2.0884,2.0873,2.0863,2.0841,2.0828,2.082,2.0806,2.0788,2.0772,2.0768,2.0761,2.0759,2.0755,2.0771,2.0773,2.0775,2.0778,2.0758,2.0758,2.0738,2.0738,2.0738]}]]